| time (UTC) | temp F | wind direction | speed knots | gust knots | rain 1hr in | rain 24hr in | rain mn in | humidity % | barometer mb |
| 20260508074555 | 45 | 232 | 0.9 | 3.5 | 0.00 | 0.00 | 0.00 | 78 | 1012.5 |
| 20260508073103 | 46 | 248 | 0.9 | 4.3 | 0.00 | 0.00 | 0.00 | 78 | 1012.8 |
| 20260508071603 | 46 | 277 | 1.7 | 7.0 | 0.00 | 0.00 | 0.00 | 78 | 1012.8 |
| 20260508070141 | 46 | 230 | 2.6 | 7.0 | 0.00 | 0.00 | 0.00 | 78 | 1013.0 |
| 20260508064609 | 46 | 245 | 3.5 | 7.0 | 0.00 | 0.00 | 0.00 | 78 | 1013.1 |
| 20260508063057 | 45 | 224 | 0.0 | 5.2 | 0.00 | 0.00 | 0.00 | 80 | 1012.9 |
| 20260508061603 | 44 | 0 | 0.0 | 0.9 | 0.00 | 0.00 | 0.00 | 82 | 1012.9 |
| 20260508060057 | 43 | 0 | 0.0 | 1.7 | 0.00 | 0.00 | 0.00 | 82 | 1012.8 |
| 20260508054557 | 43 | 0 | 0.0 | 0.0 | 0.00 | 0.00 | 0.00 | 80 | 1013.1 |
| 20260508053105 | 43 | 0 | 0.0 | 0.0 | 0.00 | 0.00 | 0.00 | 77 | 1013.1 |
| 20260508051557 | 44 | 0 | 0.0 | 0.0 | 0.00 | 0.00 | 0.00 | 78 | 1013.1 |
| 20260508044557 | 45 | 0 | 0.0 | 0.9 | 0.00 | 0.00 | 0.00 | 74 | 1013.1 |
| 20260508043104 | 46 | 0 | 0.0 | 0.9 | 0.00 | 0.00 | 0.00 | 74 | 1013.0 |
| 20260508041558 | 46 | 0 | 0.0 | 0.9 | 0.00 | 0.00 | 0.00 | 71 | 1013.4 |
| 20260508040057 | 47 | 0 | 0.0 | 1.7 | 0.00 | 0.00 | 0.00 | 70 | 1013.4 |
| 20260508034555 | 47 | 285 | 0.9 | 4.3 | 0.00 | 0.00 | 0.00 | 69 | 1013.4 |
| 20260508033058 | 45 | 279 | 2.6 | 5.2 | 0.00 | 0.00 | 0.00 | 73 | 1013.5 |
| 20260508031559 | 41 | 255 | 0.0 | 0.0 | 0.00 | 0.00 | 0.00 | 83 | 1013.5 |
| 20260508024601 | 40 | 359 | 0.0 | 0.9 | 0.00 | 0.00 | 0.00 | 81 | 1013.4 |
| 20260508023055 | 40 | 0 | 0.0 | 0.0 | 0.00 | 0.00 | 0.00 | 78 | 1013.3 |
| 20260508021559 | 41 | 0 | 0.0 | 0.0 | 0.00 | 0.00 | 0.00 | 76 | 1013.3 |
| 20260508020055 | 42 | 0 | 0.0 | 0.0 | 0.00 | 0.00 | 0.00 | 74 | 1013.2 |
| 20260508014556 | 43 | 0 | 0.0 | 0.9 | 0.00 | 0.00 | 0.00 | 73 | 1013.0 |
| 20260508013105 | 43 | 0 | 0.0 | 0.0 | 0.00 | 0.00 | 0.00 | 70 | 1012.9 |
| 20260508011557 | 44 | 41 | 0.9 | 0.9 | 0.00 | 0.00 | 0.00 | 70 | 1012.8 |
| 20260508010056 | 45 | 0 | 0.0 | 0.9 | 0.00 | 0.00 | 0.00 | 62 | 1012.7 |
| 20260508004601 | 48 | 275 | 0.0 | 0.9 | 0.00 | 0.00 | 0.00 | 59 | 1012.6 |
| 20260508003055 | 49 | 0 | 0.0 | 3.5 | 0.00 | 0.00 | 0.00 | 52 | 1012.4 |
| 20260508001557 | 51 | 323 | 0.9 | 1.7 | 0.00 | 0.00 | 0.00 | 50 | 1012.4 |
| 20260508000057 | 52 | 289 | 2.6 | 5.2 | 0.00 | 0.00 | 0.00 | 48 | 1012.2 |
| 20260507234558 | 54 | 280 | 0.0 | 5.2 | 0.00 | 0.00 | 0.00 | 46 | 1012.1 |
| 20260507233058 | 54 | 245 | 0.9 | 3.5 | 0.00 | 0.00 | 0.00 | 47 | 1012.1 |
| 20260507231600 | 54 | 295 | 2.6 | 8.7 | 0.00 | 0.00 | 0.00 | 45 | 1012.0 |
| 20260507230105 | 55 | 314 | 1.7 | 7.0 | 0.00 | 0.00 | 0.00 | 45 | 1012.2 |
| 20260507224601 | 56 | 301 | 2.6 | 10.4 | 0.00 | 0.00 | 0.00 | 45 | 1012.2 |
| 20260507223057 | 55 | 263 | 2.6 | 7.0 | 0.00 | 0.00 | 0.00 | 46 | 1012.1 |
| 20260507221600 | 54 | 292 | 3.5 | 7.0 | 0.00 | 0.00 | 0.00 | 47 | 1012.2 |
| 20260507220059 | 56 | 342 | 3.5 | 9.6 | 0.00 | 0.00 | 0.00 | 44 | 1012.0 |
| 20260507214559 | 54 | 282 | 3.5 | 7.8 | 0.00 | 0.00 | 0.00 | 45 | 1012.0 |
| 20260507213101 | 54 | 291 | 5.2 | 10.4 | 0.00 | 0.00 | 0.00 | 46 | 1011.8 |
| 20260507211601 | 56 | 257 | 6.1 | 13.0 | 0.00 | 0.00 | 0.00 | 45 | 1011.7 |
| 20260507204601 | 56 | 302 | 3.5 | 13.9 | 0.00 | 0.00 | 0.00 | 49 | 1011.6 |
| 20260507203055 | 56 | 278 | 6.1 | 13.9 | 0.00 | 0.00 | 0.00 | 48 | 1011.4 |
| 20260507201604 | 55 | 116 | 5.2 | 13.9 | 0.00 | 0.00 | 0.00 | 51 | 1011.3 |
| 20260507200057 | 55 | 230 | 5.2 | 12.2 | 0.00 | 0.00 | 0.00 | 48 | 1011.4 |
| 20260507194603 | 56 | 288 | 6.1 | 13.0 | 0.00 | 0.00 | 0.00 | 48 | 1011.6 |
| 20260507193058 | 56 | 246 | 6.1 | 13.0 | 0.00 | 0.00 | 0.00 | 47 | 1011.8 |
| 20260507191614 | 56 | 311 | 5.2 | 12.2 | 0.00 | 0.00 | 0.00 | 51 | 1011.7 |
| 20260507190059 | 56 | 281 | 7.8 | 13.9 | 0.00 | 0.00 | 0.00 | 46 | 1011.8 |
| 20260507184603 | 55 | 247 | 5.2 | 12.2 | 0.00 | 0.00 | 0.00 | 53 | 1011.9 |
| 20260507183103 | 54 | 214 | 5.2 | 11.3 | 0.00 | 0.00 | 0.00 | 50 | 1011.9 |
| 20260507181556 | 55 | 333 | 6.1 | 12.2 | 0.00 | 0.00 | 0.00 | 49 | 1012.0 |
| 20260507180101 | 55 | 245 | 5.2 | 10.4 | 0.00 | 0.00 | 0.00 | 48 | 1012.0 |
| 20260507174613 | 56 | 303 | 3.5 | 11.3 | 0.00 | 0.00 | 0.00 | 51 | 1012.1 |
| 20260507173058 | 55 | 271 | 4.3 | 10.4 | 0.00 | 0.00 | 0.00 | 47 | 1012.1 |
| 20260507171556 | 55 | 288 | 4.3 | 12.2 | 0.00 | 0.00 | 0.00 | 47 | 1012.1 |
| 20260507170056 | 55 | 243 | 4.3 | 8.7 | 0.00 | 0.00 | 0.00 | 46 | 1012.1 |
| 20260507164622 | 55 | 243 | 4.3 | 9.6 | 0.00 | 0.00 | 0.00 | 48 | 1012.2 |
| 20260507163054 | 55 | 255 | 3.5 | 11.3 | 0.00 | 0.00 | 0.00 | 49 | 1012.3 |
| 20260507161606 | 55 | 255 | 4.3 | 10.4 | 0.00 | 0.00 | 0.00 | 49 | 1012.2 |
| 20260507160057 | 54 | 308 | 3.5 | 8.7 | 0.00 | 0.00 | 0.00 | 52 | 1012.3 |
| 20260507154558 | 54 | 263 | 3.5 | 7.0 | 0.00 | 0.00 | 0.00 | 52 | 1012.3 |
| 20260507153056 | 55 | 281 | 3.5 | 9.6 | 0.00 | 0.00 | 0.00 | 51 | 1012.2 |
| 20260507151556 | 54 | 334 | 4.3 | 11.3 | 0.00 | 0.00 | 0.00 | 47 | 1012.3 |
| 20260507150054 | 53 | 266 | 4.3 | 7.8 | 0.00 | 0.00 | 0.00 | 55 | 1012.4 |
| 20260507144600 | 53 | 276 | 3.5 | 7.0 | 0.00 | 0.00 | 0.00 | 59 | 1012.5 |
| 20260507143133 | 52 | 274 | 1.7 | 9.6 | 0.00 | 0.00 | 0.00 | 63 | 1012.5 |
| 20260507141621 | 51 | 244 | 3.5 | 6.1 | 0.00 | 0.00 | 0.00 | 64 | 1012.7 |
| 20260507140059 | 50 | 277 | 4.3 | 9.6 | 0.00 | 0.00 | 0.00 | 68 | 1012.9 |
| 20260507134600 | 49 | 275 | 1.7 | 7.0 | 0.00 | 0.00 | 0.00 | 71 | 1013.0 |
| 20260507133109 | 49 | 319 | 2.6 | 5.2 | 0.00 | 0.00 | 0.00 | 73 | 1013.2 |
| 20260507131613 | 48 | 279 | 2.6 | 4.3 | 0.00 | 0.00 | 0.00 | 74 | 1013.1 |
| 20260507130058 | 47 | 241 | 1.7 | 5.2 | 0.00 | 0.00 | 0.00 | 77 | 1013.1 |
| 20260507124558 | 48 | 285 | 3.5 | 5.2 | 0.00 | 0.00 | 0.00 | 75 | 1013.1 |
| 20260507123112 | 49 | 0 | 0.9 | 2.6 | 0.00 | 0.00 | 0.00 | 83 | 1013.1 |
| 20260507121608 | 48 | 0 | 0.0 | 0.9 | 0.00 | 0.00 | 0.00 | 88 | 1013.0 |
| 20260507120110 | 46 | 0 | 0.0 | 0.0 | 0.00 | 0.00 | 0.00 | 91 | 1013.0 |
| 20260507114559 | 43 | 0 | 0.0 | 1.7 | 0.00 | 0.00 | 0.00 | 91 | 1013.1 |
| 20260507113059 | 42 | 0 | 0.0 | 0.0 | 0.00 | 0.00 | 0.00 | 91 | 1013.0 |
| 20260507111559 | 38 | 0 | 0.0 | 0.0 | 0.00 | 0.00 | 0.00 | 92 | 1012.9 |
| 20260507110100 | 34 | 0 | 0.0 | 0.0 | 0.00 | 0.00 | 0.00 | 91 | 1012.8 |
| 20260507104601 | 34 | 0 | 0.0 | 0.0 | 0.00 | 0.00 | 0.00 | 91 | 1012.7 |
| 20260507103058 | 34 | 0 | 0.0 | 0.0 | 0.00 | 0.00 | 0.00 | 91 | 1012.5 |
| 20260507101601 | 35 | 0 | 0.0 | 0.0 | 0.00 | 0.00 | 0.00 | 91 | 1012.5 |
| 20260507094600 | 35 | 0 | 0.0 | 0.0 | 0.00 | 0.04 | 0.00 | 91 | 1012.4 |
| 20260507093110 | 35 | 0 | 0.0 | 0.0 | 0.00 | 0.04 | 0.00 | 91 | 1012.4 |
| 20260507091558 | 35 | 0 | 0.0 | 0.0 | 0.00 | 0.04 | 0.00 | 91 | 1012.6 |
| 20260507084559 | 35 | 0 | 0.0 | 0.0 | 0.00 | 0.08 | 0.00 | 90 | 1012.8 |
| 20260507083104 | 35 | 0 | 0.0 | 0.0 | 0.00 | 0.08 | 0.00 | 90 | 1012.7 |
| 20260507081557 | 35 | 0 | 0.0 | 0.0 | 0.00 | 0.08 | 0.00 | 90 | 1012.8 |
| 20260507080120 | 35 | 0 | 0.0 | 0.0 | 0.00 | 0.08 | 0.00 | 90 | 1012.8 |